CRA023 TNCM-MRLB

Flight info

Callsign CRA023
Flight time N/A
Altitude 34000
Route MODOR2 GOUDA L204 MLIZA L335 SCAPA UL335 ELTES/N0489F360 UL335 TBG UA317 LIO UP401 TIO UG440 LIB
Aircraft B77L/H-SDE1E2E3FGHIJ2J3J4J5M1RWXY/LB1D1

Departure

Time N/A
Airport Princess Juliana International Airport (TNCM)

Arrival

Time 2026-04-16 01:47
Airport Daniel Oduber Quirós International Airport (MRLB)
Time Latitude Longitude Altitude Speed Heading
2026-04-16 01:47 10.59896 -85.53778 283 ft 0 kts 162°
2026-04-16 02:04 10.59894 -85.53778 240 ft 1 kts 162°
2026-04-16 02:04 10.59893 -85.53777 240 ft 0 kts 162°
2026-04-16 02:05 10.59847 -85.53763 280 ft 10 kts 162°
2026-04-16 02:06 10.59800 -85.53803 280 ft 10 kts 246°
2026-04-16 02:06 10.59761 -85.53874 280 ft 6 kts 202°
2026-04-16 02:06 10.59676 -85.53851 279 ft 22 kts 159°
2026-04-16 02:06 10.59544 -85.53880 279 ft 22 kts 243°
2026-04-16 02:07 10.59489 -85.54034 278 ft 30 kts 250°
2026-04-16 02:07 10.59392 -85.54298 278 ft 44 kts 250°
2026-04-16 02:07 10.59291 -85.54588 277 ft 43 kts 250°
2026-04-16 02:07 10.59194 -85.54858 278 ft 39 kts 249°
2026-04-16 02:08 10.59104 -85.55105 280 ft 36 kts 251°
2026-04-16 02:08 10.59032 -85.55331 281 ft 31 kts 272°
2026-04-16 02:08 10.59108 -85.55523 280 ft 28 kts 290°
2026-04-16 02:08 10.59037 -85.55664 283 ft 20 kts 178°
2026-04-16 02:09 10.58964 -85.55642 280 ft 0 kts 161°
2026-04-16 02:11 10.58930 -85.55620 282 ft 16 kts 129°
2026-04-16 02:11 10.58977 -85.55454 282 ft 64 kts 67°
2026-04-16 02:11 10.59241 -85.54710 302 ft 155 kts 69°
2026-04-16 02:11 10.59672 -85.53648 1371 ft 153 kts 66°
2026-04-16 02:12 10.60129 -85.52549 2499 ft 167 kts 68°
2026-04-16 02:12 10.60702 -85.51460 3405 ft 193 kts 47°
2026-04-16 02:12 10.62026 -85.50847 3746 ft 230 kts
2026-04-16 02:12 10.63669 -85.51138 4384 ft 254 kts 345°
2026-04-16 02:13 10.65363 -85.51893 4963 ft 274 kts 337°
2026-04-16 02:13 10.67085 -85.52784 6055 ft 275 kts 335°
2026-04-16 02:13 10.68771 -85.53673 7106 ft 279 kts 334°
2026-04-16 02:13 10.70509 -85.54578 8138 ft 282 kts 334°
2026-04-16 02:14 10.72270 -85.55481 9203 ft 285 kts 334°
2026-04-16 02:14 10.74059 -85.56389 10180 ft 289 kts 334°
2026-04-16 02:14 10.75909 -85.57321 10772 ft 309 kts 334°
2026-04-16 02:14 10.77932 -85.58332 10978 ft 338 kts 335°
2026-04-16 02:15 10.80129 -85.59425 11173 ft 364 kts 335°
2026-04-16 02:15 10.82458 -85.60580 11607 ft 379 kts 335°
2026-04-16 02:15 10.84823 -85.61753 12274 ft 384 kts 336°
2026-04-16 02:15 10.87243 -85.62953 12982 ft 390 kts 336°
2026-04-16 02:16 10.89708 -85.64176 13630 ft 395 kts 337°
2026-04-16 02:16 10.92205 -85.65414 14175 ft 401 kts 336°
2026-04-16 02:16 10.94732 -85.66665 14763 ft 405 kts 336°
2026-04-16 02:16 10.97235 -85.67905 15365 ft 407 kts 336°
2026-04-16 02:17 10.99804 -85.69178 15915 ft 411 kts 337°
2026-04-16 02:17 11.02391 -85.70460 16458 ft 415 kts 336°
2026-04-16 02:17 11.05002 -85.71756 16985 ft 419 kts 336°
2026-04-16 02:17 11.07635 -85.73063 17516 ft 423 kts 336°
2026-04-16 02:18 11.10292 -85.74382 18031 ft 426 kts 336°
2026-04-16 02:18 11.12968 -85.75710 18527 ft 428 kts 336°
2026-04-16 02:18 11.15644 -85.77039 19081 ft 427 kts 336°
2026-04-16 02:18 11.18292 -85.78355 19584 ft 428 kts 336°
2026-04-16 02:19 11.20978 -85.79684 20059 ft 429 kts 335°
2026-04-16 02:19 11.23704 -85.80923 20516 ft 430 kts 339°
2026-04-16 02:19 11.26481 -85.82066 20972 ft 430 kts 340°
2026-04-16 02:19 11.28331 -85.82795 21313 ft 430 kts 340°
2026-04-16 02:20 11.31142 -85.83888 21675 ft 433 kts 340°
2026-04-16 02:20 11.33962 -85.84987 22192 ft 432 kts 340°
2026-04-16 02:20 11.37679 -85.86457 22819 ft 433 kts 339°
2026-04-16 02:20 11.40491 -85.87582 23236 ft 434 kts 339°
2026-04-16 02:21 11.42393 -85.88348 23490 ft 436 kts 339°
2026-04-16 02:21 11.45185 -85.89476 23844 ft 437 kts 339°
2026-04-16 02:21 11.48015 -85.90623 24144 ft 439 kts 339°
2026-04-16 02:21 11.50869 -85.91780 24390 ft 443 kts 339°
2026-04-16 02:22 11.53752 -85.92949 24605 ft 446 kts 339°
2026-04-16 02:22 11.56650 -85.94123 24793 ft 450 kts 339°
2026-04-16 02:22 11.59531 -85.95291 25122 ft 450 kts 339°
2026-04-16 02:22 11.62477 -85.96485 25435 ft 450 kts 339°
2026-04-16 02:23 11.65376 -85.97660 25664 ft 453 kts 339°
2026-04-16 02:23 11.68314 -85.98850 25897 ft 454 kts 339°
2026-04-16 02:23 11.71257 -86.00043 26153 ft 455 kts 339°
2026-04-16 02:23 11.74203 -86.01238 26401 ft 456 kts 339°
2026-04-16 02:24 11.77130 -86.02425 26632 ft 457 kts 339°
2026-04-16 02:24 11.80094 -86.03628 26864 ft 458 kts 339°
2026-04-16 02:24 11.83065 -86.04833 27080 ft 459 kts 339°
2026-04-16 02:24 11.86036 -86.06039 27286 ft 460 kts 339°
2026-04-16 02:25 11.89012 -86.07247 27481 ft 461 kts 339°
2026-04-16 02:25 11.91997 -86.08459 27677 ft 462 kts 339°
2026-04-16 02:25 11.94944 -86.09656 27878 ft 462 kts 339°
2026-04-16 02:25 11.97942 -86.10874 28058 ft 463 kts 339°
2026-04-16 02:26 12.00943 -86.12094 28228 ft 464 kts 339°
2026-04-16 02:26 12.03962 -86.13320 28396 ft 465 kts 339°
2026-04-16 02:26 12.06964 -86.14540 28590 ft 464 kts 339°
2026-04-16 02:26 12.09970 -86.15762 28843 ft 463 kts 339°
2026-04-16 02:27 12.12909 -86.16984 29125 ft 461 kts 338°
2026-04-16 02:27 12.15804 -86.18398 29401 ft 461 kts 333°
2026-04-16 02:27 12.18573 -86.20065 29662 ft 461 kts 329°
2026-04-16 02:27 12.21227 -86.21922 29918 ft 461 kts 326°
2026-04-16 02:28 12.23742 -86.23898 30139 ft 461 kts 323°
2026-04-16 02:28 12.26230 -86.25971 30353 ft 461 kts 323°
2026-04-16 02:28 12.28723 -86.28030 30555 ft 460 kts 324°
2026-04-16 02:28 12.31250 -86.30046 30773 ft 460 kts 325°
2026-04-16 02:29 12.33800 -86.32009 31021 ft 459 kts 326°
2026-04-16 02:29 12.36376 -86.33942 31281 ft 458 kts 326°
2026-04-16 02:29 12.38958 -86.35851 31549 ft 457 kts 326°
2026-04-16 02:29 12.41552 -86.37756 31836 ft 457 kts 326°
2026-04-16 02:30 12.44135 -86.39653 32138 ft 456 kts 326°
2026-04-16 02:30 12.46703 -86.41542 32452 ft 455 kts 326°
2026-04-16 02:30 12.49270 -86.43434 32772 ft 455 kts 326°
2026-04-16 02:30 12.51838 -86.45330 33107 ft 454 kts 326°
2026-04-16 02:31 12.54393 -86.47219 33445 ft 453 kts 326°
2026-04-16 02:31 12.56929 -86.49095 33797 ft 453 kts 325°
2026-04-16 02:31 12.59494 -86.50993 34131 ft 452 kts 325°
2026-04-16 02:31 12.62009 -86.52854 34446 ft 452 kts 325°
2026-04-16 02:32 12.64556 -86.54740 34758 ft 452 kts 325°
2026-04-16 02:32 12.67106 -86.56628 35086 ft 451 kts 325°
2026-04-16 02:32 12.69652 -86.58513 35380 ft 452 kts 325°
2026-04-16 02:32 12.72196 -86.60397 35689 ft 451 kts 325°
2026-04-16 02:33 12.74741 -86.62282 35901 ft 452 kts 324°
2026-04-16 02:33 12.77304 -86.64181 35890 ft 453 kts 324°
2026-04-16 02:33 12.82404 -86.67961 35898 ft 451 kts 324°
2026-04-16 02:34 12.87456 -86.71707 35909 ft 450 kts 324°
2026-04-16 02:34 12.92532 -86.75471 35913 ft 449 kts 324°
2026-04-16 02:35 12.97566 -86.79224 35915 ft 449 kts 324°
2026-04-16 02:35 13.02595 -86.83030 35917 ft 449 kts 324°
2026-04-16 02:36 13.07628 -86.86839 35919 ft 450 kts 324°
2026-04-16 02:36 13.12682 -86.90654 35925 ft 450 kts 324°
2026-04-16 02:37 13.17708 -86.94428 35933 ft 450 kts 324°
2026-04-16 02:37 13.22802 -86.98190 35935 ft 451 kts 324°
2026-04-16 02:38 13.27898 -87.01948 35941 ft 450 kts 324°
2026-04-16 02:38 13.30407 -87.03803 35925 ft 435 kts 324°
2026-04-16 02:38 13.32816 -87.05587 35934 ft 419 kts 324°
2026-04-16 02:39 13.35133 -87.07304 35924 ft 404 kts 324°
2026-04-16 02:39 13.37371 -87.08962 35938 ft 389 kts 324°
2026-04-16 02:39 13.39506 -87.10544 35932 ft 375 kts 324°
2026-04-16 02:39 13.41585 -87.12084 35940 ft 362 kts 324°
2026-04-16 02:40 13.43595 -87.13573 35945 ft 349 kts 324°
2026-04-16 02:40 13.45535 -87.15011 35944 ft 337 kts 324°
2026-04-16 02:40 13.49307 -87.17807 35988 ft 340 kts 324°
2026-04-16 02:41 13.53259 -87.20735 35998 ft 358 kts 324°
2026-04-16 02:41 13.55261 -87.22220 35756 ft 360 kts 324°
2026-04-16 02:41 13.57321 -87.23750 35027 ft 370 kts 324°
2026-04-16 02:42 13.59492 -87.25277 34085 ft 384 kts 329°
2026-04-16 02:42 13.61919 -87.26554 32847 ft 400 kts 341°
2026-04-16 02:42 13.64321 -87.27142 31675 ft 415 kts 354°
2026-04-16 02:42 13.67257 -87.27231 30421 ft 429 kts
2026-04-16 02:43 13.70282 -87.27178 29080 ft 439 kts
2026-04-16 02:43 13.73375 -87.27215 27734 ft 448 kts 358°
2026-04-16 02:43 13.76516 -87.27449 26468 ft 454 kts 355°
2026-04-16 02:43 13.79683 -87.27744 25268 ft 458 kts 355°
2026-04-16 02:44 13.82871 -87.27987 24145 ft 461 kts 356°
2026-04-16 02:44 13.86052 -87.28122 22980 ft 463 kts 360°
2026-04-16 02:44 13.89248 -87.27934 21970 ft 459 kts 11°
2026-04-16 02:44 13.92268 -87.26963 21182 ft 450 kts 20°
2026-04-16 02:45 13.95174 -87.25819 20429 ft 442 kts 20°
2026-04-16 02:45 13.98093 -87.24932 19922 ft 430 kts 14°
2026-04-16 02:45 14.00953 -87.24285 19756 ft 411 kts 12°
2026-04-16 02:45 14.03725 -87.23650 19191 ft 404 kts 14°
2026-04-16 02:46 14.06436 -87.22947 18670 ft 399 kts 15°
2026-04-16 02:46 14.09083 -87.22215 18097 ft 388 kts 16°
2026-04-16 02:46 14.11614 -87.21541 17490 ft 374 kts 12°
2026-04-16 02:46 14.14177 -87.21520 16872 ft 367 kts 349°
2026-04-16 02:47 14.16546 -87.22401 16316 ft 359 kts 335°
2026-04-16 02:47 14.18686 -87.23680 15738 ft 352 kts 327°
2026-04-16 02:47 14.20554 -87.25290 15165 ft 348 kts 313°
2026-04-16 02:47 14.21765 -87.27422 14643 ft 343 kts 290°
2026-04-16 02:48 14.22134 -87.29727 14089 ft 319 kts 269°
2026-04-16 02:48 14.21726 -87.31903 13426 ft 302 kts 250°
2026-04-16 02:48 14.20800 -87.33781 12740 ft 287 kts 233°
2026-04-16 02:48 14.19414 -87.35188 12071 ft 274 kts 212°
2026-04-16 02:49 14.17680 -87.35803 11395 ft 261 kts 176°
2026-04-16 02:49 14.16031 -87.35241 10774 ft 247 kts 137°
2026-04-16 02:49 14.14959 -87.33915 10189 ft 239 kts 127°
2026-04-16 02:49 14.13578 -87.32993 9469 ft 242 kts 169°
2026-04-16 02:50 14.11934 -87.33200 8853 ft 242 kts 202°
2026-04-16 02:50 14.10305 -87.33589 8185 ft 244 kts 171°
2026-04-16 02:50 14.08753 -87.32989 7562 ft 237 kts 140°
2026-04-16 02:50 14.07832 -87.31662 6937 ft 226 kts 107°
2026-04-16 02:51 14.07410 -87.30133 6270 ft 227 kts 107°
2026-04-16 02:51 14.06595 -87.28722 5542 ft 231 kts 123°
2026-04-16 02:51 14.05656 -87.27392 4955 ft 226 kts 122°
2026-04-16 02:51 14.04829 -87.26092 4707 ft 204 kts 120°
2026-04-16 02:52 14.04103 -87.24910 4500 ft 187 kts 117°
2026-04-16 02:52 14.03573 -87.23763 4234 ft 171 kts 90°
2026-04-16 02:52 14.04028 -87.22667 3718 ft 173 kts 36°
2026-04-16 02:52 14.05045 -87.22090 3429 ft 159 kts 15°
2026-04-16 02:53 14.06003 -87.21767 3275 ft 135 kts 18°
2026-04-16 02:53 14.06538 -87.21563 3252 ft 36 kts 13°
2026-04-16 02:53 14.06592 -87.21608 3251 ft 1 kts 250°
2026-04-16 02:54 14.06591 -87.21609 3251 ft 0 kts 241°
2026-04-16 02:54 14.06590 -87.21610 3251 ft 0 kts 237°
2026-04-16 02:54 14.06588 -87.21616 3252 ft 1 kts 247°
2026-04-16 02:54 14.06583 -87.21622 3251 ft 1 kts 234°
2026-04-16 02:55 14.06576 -87.21631 3251 ft 4 kts 231°
2026-04-16 02:55 14.06561 -87.21640 3252 ft 1 kts 205°
2026-04-16 02:55 14.06554 -87.21643 3252 ft 1 kts 201°
2026-04-16 02:55 14.06553 -87.21644 3252 ft 0 kts 201°
2026-04-16 02:56 14.06550 -87.21645 3252 ft 1 kts 201°
2026-04-16 02:56 14.06542 -87.21648 3252 ft 1 kts 201°
2026-04-16 02:56 14.06530 -87.21653 3252 ft 5 kts 201°
2026-04-16 02:57 14.06433 -87.21686 3253 ft 27 kts 197°
2026-04-16 02:57 14.06190 -87.21771 3263 ft 34 kts 197°
2026-04-16 02:57 14.06045 -87.21859 3273 ft 17 kts 212°
2026-04-16 02:57 14.06005 -87.21879 3272 ft 0 kts 195°
2026-04-16 02:58 14.06002 -87.21876 3273 ft 0 kts 156°